Location: Beneden-Haastrecht
(52.0012°N, 4.7557°E)
Time: 03:40:14
(UTC+00:00)

Cosmos 2082 - Pass Details

Date: 24 October 2020
Orbit: 832 x 857 km, 71.0° (Epoch: 27 November)

Event Time Altitude Azimuth Distance (km) Brightness Sun altitude
Rises 19:20:42 0° 327° (NNW) 3,436 7.6 -27.2°
Reaches altitude 10° 19:23:11 10° 324° (NW) 2,498 6.8 -27.5°
Maximum altitude 19:28:49 59° 247° (WSW) 989 4.1 -28.3°
Enters shadow 19:30:01 49° 201° (SSW) 1,103 4.2 -28.5°
